Weather in Strakhovo

Russia / Tula Oblast     54°44′07″N   37°16′01″E
temp.,
°C
wind,
m/s
gust,
m/s
humid.,
%
clouds,
%
prec.,
mm/h
press.,
hPa
HPBL,
m
12 april, mon
mon1200:00+7ese336928 0.0 103222
03:00+6e3477100 0.0 103358
06:00+4ene31080100 0.0 1033191
09:00+8e51458100 0.0 1032547
12:00+11e71056100 0.0 1030724
15:00+13e5967100 0.0 1029754
18:00+13e5973100 0.0 1028646
21:00+9e41291100 0.0 1028246
13 april, tue
tue1300:00+9ese4109194 0.0 1026224
03:00+8ese399145 0.0 1026158
06:00+7sse3108481 0.0 1025167
09:00+13sse5106285 0.0 1025327
12:00+18sse5843100 0.0 1024804
15:00+20s673667 0.0 10241801
18:00+17sse374990 0.0 1023172
21:00+13se41061100 0.0 1023155
14 april, wed
wed1400:00+11sse415604 0.0 1023282
03:00+9sse4116688 0.0 1022201
06:00+8sse387063 0.0 1022140
09:00+13sse595486 0.0 1021326
12:00+17sse6840100 0.0 1020906
15:00+19sse683296 0.0 10191913
18:00+17se364397 0.0 1018167
21:00+12se3754100 0.0 1018106
15 april, thu
thu1500:00+11se3561100 0.0 101873
03:00+9ssw2267100 0.0 101814
06:00+8s1175100 0.0 101810
09:00+13s1262100 0.0 1018168
12:00+17se1247100 0.0 1017662
15:00+18ese2239100 0.0 10161287
18:00+16e2350100 0.0 101542
21:00+12e2260100 0.0 101522
16 april, fri
fri1600:00+11ene2360100 0.0 101527
03:00+10ne4974100 0.0 1015166
06:00+9ne51189100 0.0 1016431
09:00+7nne61291100 1.4 1018462
12:00+6ne71391100 2.2 1019631
15:00+5ne81590100 4.4 1021775
18:00+6ne71475100 1.1 10221128
21:00+5ne81660100 1.1 1023964